• în România
  • Lista ţărilor
  • Pe 7 zile
  • Temperatura apei
  • Hartă satelitară
  • Meteo pe hartă
  • Widget-uri
  • user-avatar
    Intrare

    Meteo pe oră la Klagenfurt

    Astăzi, 27 Aprilie, Joi

    Timp Temperatura Precipitaţii Vânt Presiune Umiditate
    00:00 +9°C° 1,9 mm 2 m/s 684 mmHg 95%
    01:00 +9°C° 1,9 mm 2 m/s 683 mmHg 96%
    02:00 +9°C° 2 mm 2 m/s 683 mmHg 96%
    03:00 +9°C° 2 mm 2 m/s 683 mmHg 96%
    04:00 +9°C° 2 mm 2 m/s 683 mmHg 96%
    05:00 +9°C° 2,5 mm 2 m/s 683 mmHg 96%
    06:00 +9°C° 2,5 mm 2 m/s 684 mmHg 96%
    07:00 +9°C° 2,5 mm 2 m/s 684 mmHg 95%
    08:00 +9°C° 2,6 mm 2 m/s 684 mmHg 94%
    09:00 +10°C° 2,6 mm 2 m/s 684 mmHg 93%
    10:00 +10°C° 2,6 mm 3 m/s 684 mmHg 92%
    11:00 +10°C° 2,1 mm 2 m/s 684 mmHg 93%
    12:00 +10°C° 2,1 mm 2 m/s 684 mmHg 93%
    13:00 +10°C° 2,1 mm 2 m/s 684 mmHg 94%
    14:00 +10°C° 2,4 mm 2 m/s 684 mmHg 94%
    15:00 +10°C° 2,4 mm 2 m/s 684 mmHg 94%
    16:00 +10°C° 2,4 mm 2 m/s 684 mmHg 94%
    17:00 +9°C° 3,8 mm 2 m/s 683 mmHg 95%
    18:00 +9°C° 3,8 mm 2 m/s 683 mmHg 96%
    19:00 +8°C° 3,8 mm 2 m/s 683 mmHg 97%
    20:00 +8°C° 3,3 mm 2 m/s 683 mmHg 97%
    21:00 +8°C° 3,3 mm 2 m/s 683 mmHg 97%
    22:00 +8°C° 3,3 mm 2 m/s 683 mmHg 98%
    23:00 +8°C° 4 mm 2 m/s 682 mmHg 98%

    Mâine, 28 Aprilie, Vineri

    Timp Temperatura Precipitaţii Vânt Presiune Umiditate
    00:00 +8°C° 4 mm 2 m/s 682 mmHg 98%
    01:00 +7°C° 4 mm 2 m/s 682 mmHg 98%
    02:00 +7°C° 4,6 mm 2 m/s 681 mmHg 97%
    03:00 +7°C° 4,6 mm 2 m/s 681 mmHg 97%
    04:00 +7°C° 4,6 mm 2 m/s 681 mmHg 97%
    05:00 +8°C° 2,3 mm 1 m/s 681 mmHg 97%
    06:00 +8°C° 2,3 mm 1 m/s 681 mmHg 97%
    07:00 +8°C° 2,3 mm 1 m/s 681 mmHg 97%
    08:00 +8°C° 1,2 mm 1 m/s 681 mmHg 95%
    09:00 +8°C° 1,2 mm 2 m/s 681 mmHg 93%
    10:00 +8°C° 1,2 mm 2 m/s 681 mmHg 91%
    11:00 +9°C° 0,3 mm 3 m/s 682 mmHg 82%
    12:00 +10°C° 0,3 mm 3 m/s 682 mmHg 73%
    13:00 +11°C° 0,3 mm 4 m/s 682 mmHg 63%
    14:00 +11°C° 0,1 mm 4 m/s 682 mmHg 61%
    15:00 +10°C° 0,1 mm 4 m/s 683 mmHg 58%
    16:00 +10°C° 0,1 mm 4 m/s 683 mmHg 55%
    17:00 +9°C° 0,1 mm 3 m/s 683 mmHg 63%
    18:00 +7°C° 0,1 mm 2 m/s 683 mmHg 70%
    19:00 +5°C° 0,1 mm 2 m/s 683 mmHg 77%
    20:00 +5°C° 0,1 mm 1 m/s 684 mmHg 80%
    21:00 +5°C° 0,1 mm 1 m/s 684 mmHg 83%
    22:00 +4°C° 0,1 mm 1 m/s 685 mmHg 86%
    23:00 +3°C° 0 mm 1 m/s 685 mmHg 88%

    Poimâine, 29 Aprilie, Sâmbătă

    Timp Temperatura Precipitaţii Vânt Presiune Umiditate
    00:00 +3°C° 0 mm 1 m/s 685 mmHg 89%
    01:00 +3°C° 0 mm 1 m/s 685 mmHg 90%
    02:00 +2°C° 0 mm 1 m/s 686 mmHg 90%
    03:00 +2°C° 0 mm 1 m/s 686 mmHg 90%
    04:00 +2°C° 0 mm 1 m/s 686 mmHg 89%
    05:00 +3°C° 0 mm 1 m/s 687 mmHg 85%
    06:00 +4°C° 0 mm 1 m/s 687 mmHg 80%
    07:00 +5°C° 0 mm 1 m/s 688 mmHg 75%
    08:00 +7°C° 0 mm 1 m/s 689 mmHg 67%
    09:00 +9°C° 0 mm 1 m/s 689 mmHg 59%
    10:00 +10°C° 0 mm 2 m/s 689 mmHg 51%
    11:00 +10°C° 0,1 mm 2 m/s 689 mmHg 50%
    12:00 +12°C° 0,1 mm 1 m/s 690 mmHg 49%
    13:00 +13°C° 0,1 mm 1 m/s 690 mmHg 48%
    14:00 +12°C° 0,2 mm 1 m/s 689 mmHg 52%
    15:00 +12°C° 0,2 mm 1 m/s 689 mmHg 55%
    16:00 +12°C° 0,2 mm 1 m/s 689 mmHg 58%
    17:00 +9°C° 0,1 mm 1 m/s 689 mmHg 68%
    18:00 +7°C° 0,1 mm 1 m/s 689 mmHg 79%
    19:00 +4°C° 0,1 mm 1 m/s 688 mmHg 89%
    20:00 +3°C° 0 mm 1 m/s 688 mmHg 90%
    21:00 +2°C° 0 mm 0 m/s 689 mmHg 92%
    22:00 +1°C° 0 mm 0 m/s 689 mmHg 93%
    23:00 0°C° 0 mm 0 m/s 689 mmHg 94%

    30 Aprilie, Duminică

    Timp Temperatura Precipitaţii Vânt Presiune Umiditate
    00:00 0°C° 0 mm 0 m/s 689 mmHg 94%
    01:00 0°C° 0 mm 0 m/s 689 mmHg 94%
    02:00 0°C° 0 mm 0 m/s 688 mmHg 94%
    03:00 0°C° 0 mm 0 m/s 688 mmHg 94%
    04:00 0°C° 0 mm 0 m/s 688 mmHg 94%
    05:00 +2°C° 0 mm 0 m/s 689 mmHg 89%
    06:00 +4°C° 0 mm 0 m/s 689 mmHg 84%
    07:00 +6°C° 0 mm 0 m/s 690 mmHg 79%
    08:00 +9°C° 0 mm 1 m/s 690 mmHg 71%
    09:00 +11°C° 0 mm 1 m/s 690 mmHg 63%
    10:00 +12°C° 0 mm 1 m/s 690 mmHg 56%
    11:00 +13°C° 0 mm 1 m/s 690 mmHg 53%
    12:00 +14°C° 0 mm 1 m/s 690 mmHg 51%
    13:00 +15°C° 0 mm 1 m/s 690 mmHg 48%
    14:00 +15°C° 0 mm 2 m/s 690 mmHg 50%
    15:00 +15°C° 0 mm 2 m/s 689 mmHg 51%
    16:00 +14°C° 0 mm 2 m/s 689 mmHg 52%
    17:00 +12°C° 0 mm 1 m/s 688 mmHg 64%
    18:00 +10°C° 0 mm 1 m/s 688 mmHg 75%
    19:00 +7°C° 0 mm 1 m/s 687 mmHg 86%
    20:00 +6°C° 0 mm 1 m/s 687 mmHg 89%
    21:00 +5°C° 0 mm 1 m/s 687 mmHg 91%
    22:00 +4°C° 0 mm 1 m/s 687 mmHg 93%
    23:00 +4°C° 0 mm 1 m/s 687 mmHg 93%

    1 Mai, Luni

    Timp Temperatura Precipitaţii Vânt Presiune Umiditate
    00:00 +4°C° 0 mm 1 m/s 687 mmHg 93%
    01:00 +4°C° 0 mm 1 m/s 687 mmHg 94%
    02:00 +3°C° 0 mm 1 m/s 686 mmHg 94%
    03:00 +3°C° 0 mm 1 m/s 686 mmHg 94%
    04:00 +3°C° 0 mm 1 m/s 686 mmHg 94%
    05:00 +5°C° 0 mm 1 m/s 686 mmHg 90%
    06:00 +6°C° 0 mm 1 m/s 686 mmHg 85%
    07:00 +8°C° 0 mm 1 m/s 687 mmHg 81%
    08:00 +10°C° 0 mm 1 m/s 687 mmHg 72%
    09:00 +12°C° 0 mm 1 m/s 687 mmHg 64%
    10:00 +13°C° 0 mm 2 m/s 687 mmHg 55%
    11:00 +14°C° 0 mm 2 m/s 687 mmHg 52%
    12:00 +15°C° 0 mm 2 m/s 687 mmHg 49%
    13:00 +16°C° 0 mm 2 m/s 686 mmHg 46%
    14:00 +16°C° 0 mm 2 m/s 686 mmHg 47%
    15:00 +16°C° 0 mm 2 m/s 686 mmHg 49%
    16:00 +16°C° 0 mm 2 m/s 686 mmHg 50%
    17:00 +14°C° 0 mm 2 m/s 685 mmHg 62%
    18:00 +11°C° 0 mm 1 m/s 685 mmHg 73%
    19:00 +9°C° 0 mm 1 m/s 685 mmHg 85%
    20:00 +8°C° 0 mm 1 m/s 685 mmHg 87%
    21:00 +8°C° 0 mm 1 m/s 686 mmHg 89%
    22:00 +7°C° 0 mm 1 m/s 686 mmHg 91%
    23:00 +7°C° 0,3 mm 1 m/s 687 mmHg 93%

    2 Mai, Marţi

    Timp Temperatura Precipitaţii Vânt Presiune Umiditate
    00:00 +7°C° 0,3 mm 1 m/s 687 mmHg 94%
    01:00 +6°C° 0,3 mm 1 m/s 687 mmHg 95%
    02:00 +6°C° 0,3 mm 1 m/s 687 mmHg 95%
    03:00 +6°C° 0,3 mm 1 m/s 687 mmHg 95%
    04:00 +6°C° 0,3 mm 1 m/s 687 mmHg 95%
    05:00 +7°C° 0,2 mm 1 m/s 688 mmHg 93%
    06:00 +8°C° 0,2 mm 1 m/s 688 mmHg 91%
    07:00 +9°C° 0,2 mm 1 m/s 688 mmHg 90%
    08:00 +10°C° 0,6 mm 1 m/s 689 mmHg 88%
    09:00 +11°C° 0,6 mm 1 m/s 689 mmHg 87%
    10:00 +11°C° 0,6 mm 1 m/s 689 mmHg 85%
    11:00 +12°C° 0,7 mm 2 m/s 689 mmHg 83%
    12:00 +13°C° 0,7 mm 2 m/s 689 mmHg 81%
    13:00 +13°C° 0,7 mm 2 m/s 689 mmHg 79%
    14:00 +13°C° 0,8 mm 2 m/s 689 mmHg 80%
    15:00 +13°C° 0,8 mm 2 m/s 689 mmHg 81%
    16:00 +13°C° 0,8 mm 2 m/s 689 mmHg 81%
    17:00 +12°C° 0,6 mm 2 m/s 689 mmHg 85%
    18:00 +10°C° 0,6 mm 2 m/s 689 mmHg 89%
    19:00 +10°C° 0,6 mm 1 m/s 689 mmHg 93%
    20:00 +10°C° 0,4 mm 1 m/s 689 mmHg 94%
    21:00 +9°C° 0,4 mm 1 m/s 689 mmHg 95%
    22:00 +9°C° 0,4 mm 1 m/s 689 mmHg 96%
    23:00 +9°C° 0,4 mm 1 m/s 689 mmHg 96%
    Arată mai mult